Location: Unspecified
(37.2440°N, 0.0000°E)
Time: 14:55:24
(UTC+00:00)

GRUS-1A - Visible Passes

Search period start: 04 April 2026 00:00
Search period end: 14 April 2026 00:00
Orbit: 562 x 578 km, 97.5° (Epoch: 29 March)

Date Brightness Start Highest point End Pass type
(mag) Time Alt. Az. Time Alt. Az. Time Alt. Az.
4 Apr ? 21:29:27 10° N 21:29:38 11° N 21:29:38 11° N visible
5 Apr ? 21:31:19 10° N 21:31:39 12° N 21:31:39 12° N visible
6 Apr ? 21:33:10 10° N 21:33:39 13° N 21:33:39 13° N visible
7 Apr ? 21:35:02 10° N 21:35:40 14° N 21:35:40 14° N visible
8 Apr ? 21:36:53 10° N 21:37:40 15° N 21:37:40 15° N visible
9 Apr ? 21:38:44 10° N 21:39:40 16° NNW 21:39:40 16° NNW visible
10 Apr ? 21:40:36 10° N 21:41:39 17° NNW 21:41:39 17° NNW visible
11 Apr ? 21:42:27 10° N 21:43:38 17° NNW 21:43:38 17° NNW visible
12 Apr ? 21:44:18 10° N 21:45:37 18° NNW 21:45:37 18° NNW visible
13 Apr ? 21:46:09 10° NNW 21:47:36 19° NNW 21:47:36 19° NNW visible
